Time[GMT],current_u[cm/s](5m),current_v[cm/s](5m),current_u[cm/s](6m),current_v[cm/s](6m),current_u[cm/s](7m),current_v[cm/s](7m),current_u[cm/s](8m),current_v[cm/s](8m),current_u[cm/s](9m),current_v[cm/s](9m),current_u[cm/s](10m),current_v[cm/s](10m),current_u[cm/s](11m),current_v[cm/s](11m),current_u[cm/s](12m),current_v[cm/s](12m),current_u[cm/s](13m),current_v[cm/s](13m),current_u[cm/s](14m),current_v[cm/s](14m),current_u[cm/s](15m),current_v[cm/s](15m),current_u[cm/s](16m),current_v[cm/s](16m),current_u[cm/s](17m),current_v[cm/s](17m),current_u[cm/s](18m),current_v[cm/s](18m),current_u[cm/s](19m),current_v[cm/s](19m),current_u[cm/s](20m),current_v[cm/s](20m),current_u[cm/s](21m),current_v[cm/s](21m),current_u[cm/s](22m),current_v[cm/s](22m),current_u[cm/s](23m),current_v[cm/s](23m),current_u[cm/s](24m),current_v[cm/s](24m),current_u[cm/s](25m),current_v[cm/s](25m)
2015-08-25 15:00,3.95,-47.00,4.79,-43.02,5.04,-38.38,7.61,-31.31,7.73,-28.06,6.26,-22.86,3.41,-19.40,2.72,-21.37,-0.59,-22.51,-0.94,-22.40,-0.35,-19.33,1.09,-15.59,2.50,-11.76,4.15,-8.80,3.22,-8.44,2.75,-8.99,3.59,-7.92,4.17,-6.30,2.45,-4.61,1.08,-1.98,-1.97,4.02
2015-08-25 15:20,3.51,-42.14,4.32,-40.97,3.61,-37.01,2.91,-29.00,3.87,-28.73,5.54,-25.45,5.69,-20.84,2.88,-19.35,1.24,-18.35,0.11,-14.73,-0.79,-12.28,-0.09,-8.86,-0.80,-7.09,0.42,-5.91,3.12,-4.42,5.29,-3.28,3.52,-3.99,1.55,-2.16,-0.32,1.88,0.26,4.96,1.50,5.00
2015-08-25 15:40,-2.87,-38.33,-2.33,-35.47,0.53,-31.24,3.33,-24.62,5.76,-24.04,4.96,-21.56,3.91,-17.50,3.43,-16.18,4.28,-14.38,3.74,-13.59,1.40,-13.01,1.34,-11.36,2.98,-6.85,4.16,-1.84,1.58,-0.80,-1.11,0.62,-1.86,5.09,-1.88,8.10,-1.36,11.05,1.19,8.65,3.23,12.45
2015-08-25 16:00,-2.19,-44.06,-0.40,-40.44,-1.25,-36.00,-0.43,-27.14,-0.78,-25.89,-0.07,-21.43,1.59,-17.01,4.11,-14.53,4.96,-13.87,3.69,-13.40,2.27,-10.58,0.64,-6.68,1.90,-3.41,1.98,-0.38,0.73,0.73,-2.46,4.29,-3.23,5.53,-2.40,7.74,-0.61,8.04,2.28,8.85,0.33,9.86
2015-08-25 16:20,-3.07,-41.30,-3.05,-37.34,-0.82,-30.16,2.10,-23.21,2.74,-21.05,2.81,-18.74,2.06,-17.19,2.92,-15.08,2.80,-12.82,2.73,-11.49,2.32,-10.05,2.06,-6.17,-0.86,-2.11,-1.27,1.20,-2.90,2.92,-2.89,3.24,-2.69,6.20,-2.04,7.22,0.72,5.92,1.20,6.05,0.32,2.90
2015-08-25 16:40,-5.50,-28.68,-6.27,-23.39,-5.93,-19.45,-4.66,-15.87,-1.17,-17.17,2.14,-16.75,4.15,-16.49,4.43,-15.27,2.27,-14.63,1.88,-12.15,1.20,-7.56,-1.83,-1.97,-1.90,0.09,-1.60,3.08,-1.48,5.61,-0.53,7.75,0.22,6.92,-0.37,5.72,-0.95,4.82,-0.65,3.04,-1.85,2.49
2015-08-25 17:00,-2.48,-28.35,-3.34,-23.08,-3.25,-17.55,-4.29,-11.29,-3.27,-7.16,-2.56,-7.48,0.90,-12.74,2.19,-14.35,1.20,-13.07,0.13,-8.90,-3.54,-4.02,-3.57,0.13,-1.37,2.63,-2.74,4.53,-3.32,6.23,-1.48,7.79,-0.92,5.46,0.11,4.40,0.23,3.60,-2.49,3.66,-3.21,1.79
2015-08-25 17:20,-3.16,-14.92,-2.48,-9.95,-2.13,-6.42,-3.91,-4.54,-3.42,-3.36,0.01,-5.92,2.51,-8.12,1.82,-8.63,-0.61,-6.30,-2.29,-2.93,-5.19,0.71,-5.49,3.23,-4.83,5.70,-4.45,5.08,-1.75,7.30,0.93,9.20,1.00,7.87,0.92,4.83,-0.07,4.66,0.11,4.40,-2.06,6.17
2015-08-25 17:40,-3.42,6.20,-3.48,2.76,-2.69,1.42,-1.78,0.43,0.25,-0.87,2.98,-4.66,4.69,-6.67,1.91,-6.74,-1.57,-3.25,-3.62,1.05,-4.23,5.04,-4.12,5.38,-3.36,6.01,-3.19,9.07,-1.65,9.51,1.99,8.77,2.34,7.52,0.99,4.23,-2.85,4.18,-3.33,1.86,-1.12,1.76
2015-08-25 18:00,-4.89,12.13,-3.23,11.04,-1.87,9.55,-0.04,7.47,-0.13,4.85,0.93,-0.36,4.12,-3.93,1.88,-4.46,-1.73,1.69,-3.53,7.32,-3.56,9.28,-2.06,10.22,-1.87,11.01,-0.09,11.72,0.34,7.99,1.30,7.54,3.29,6.75,1.25,5.86,1.21,5.64,-1.65,5.46,,
2015-08-25 18:20,-6.56,18.41,-6.21,14.25,-3.76,12.55,-1.31,14.18,1.34,9.94,5.02,3.19,6.94,0.09,4.16,-0.38,0.45,4.28,0.23,9.11,-0.83,13.59,-1.65,15.75,-0.93,12.83,2.29,9.90,5.38,8.17,3.93,6.31,1.55,5.53,0.15,5.34,-1.15,3.31,-2.40,2.96,11.23,1.83
2015-08-25 18:40,-3.69,22.23,-1.95,20.86,1.50,17.47,3.11,13.98,4.51,11.25,4.31,9.01,4.02,8.20,3.74,8.44,2.31,10.94,0.79,13.73,0.33,16.83,-1.23,14.62,0.82,11.04,3.73,10.31,5.30,9.19,5.45,9.02,3.40,7.82,0.17,5.66,-2.16,3.96,-3.33,3.32,-5.48,2.09
2015-08-25 19:00,-3.43,21.68,-2.10,21.02,-2.06,21.24,-0.95,21.35,-0.27,23.72,0.02,23.80,0.75,25.26,1.69,25.63,0.36,22.24,1.45,19.84,2.06,18.04,1.53,16.64,2.76,11.90,4.16,9.91,4.61,9.41,4.66,8.49,3.95,7.35,1.20,6.05,-0.11,4.44,-0.94,2.23,0.11,1.07
2015-08-25 19:20,-8.21,17.63,-9.17,23.59,-8.46,26.60,-6.54,26.42,-4.56,27.50,-4.39,27.65,-1.96,27.50,-0.39,26.70,2.96,25.16,3.90,21.47,2.26,17.37,-0.60,13.86,0.11,12.09,1.63,13.35,3.14,12.42,1.77,11.00,-0.39,9.45,-0.12,7.76,-1.26,7.75,-2.88,6.88,-3.21,6.57
2015-08-25 19:40,-12.45,25.99,-11.27,23.31,-9.88,26.82,-6.95,27.13,-6.91,27.35,-4.17,25.74,-3.00,24.92,-3.60,24.86,-3.40,23.77,-3.76,24.29,-2.56,23.39,-2.50,23.51,-1.67,22.08,0.33,22.33,0.20,20.95,1.81,20.78,0.83,20.19,-1.27,18.45,-0.82,17.23,-0.92,16.47,3.99,8.30
2015-08-25 20:00,-14.03,30.12,-13.06,29.25,-10.36,31.47,-6.74,33.01,-8.04,30.98,-6.85,29.34,-3.95,29.02,-0.37,28.48,2.83,26.37,4.43,24.74,2.82,24.18,0.64,20.86,-1.01,20.08,-2.50,18.00,-2.57,17.15,-3.11,17.62,-1.92,16.71,-2.66,17.85,-2.72,17.31,-2.83,16.24,,
2015-08-25 20:20,-11.41,32.62,-14.55,32.67,-15.46,33.35,-12.81,33.16,-8.35,34.64,-3.83,34.46,-3.18,31.42,-0.68,31.40,1.91,27.77,-0.83,26.06,-4.23,25.61,-3.36,24.72,-1.60,25.84,0.77,28.49,2.63,29.64,4.65,30.94,4.84,29.53,2.67,28.40,3.07,28.10,2.78,27.29,4.61,28.53
2015-08-25 20:40,-6.45,29.04,-11.55,29.78,-12.13,31.49,-10.58,30.78,-5.18,31.89,-2.32,31.35,0.33,31.17,-1.63,29.26,-2.16,26.72,-3.42,28.24,-2.94,27.64,-1.93,31.05,-0.18,31.13,2.11,32.19,4.55,32.05,6.43,33.10,6.73,33.50,5.27,34.64,3.57,32.92,2.63,30.36,1.67,28.64
2015-08-25 21:00,-7.74,25.87,-10.01,28.03,-11.69,27.35,-9.36,29.78,-6.06,31.33,-2.95,29.51,-3.84,27.91,-4.99,24.98,-4.38,26.51,-3.64,29.01,-0.99,30.69,2.58,30.56,5.07,31.68,6.69,31.10,6.55,32.30,3.10,30.91,1.23,28.72,0.12,27.47,-0.46,25.85,-1.92,24.40,-4.49,28.35
2015-08-25 21:20,-8.11,28.67,-9.89,30.56,-9.88,30.15,-8.04,30.25,-6.91,32.13,-2.75,30.30,-0.15,28.43,-0.80,29.29,-1.05,31.61,-0.74,32.74,0.00,33.05,2.01,33.30,5.02,34.05,5.72,33.42,4.23,32.79,2.17,31.27,1.87,29.73,0.94,27.91,0.44,25.27,0.37,22.55,-1.30,21.87
2015-08-25 21:40,-9.21,26.29,-9.85,26.73,-8.77,25.48,-5.12,27.65,-2.41,30.18,-1.92,28.45,-2.07,27.89,-0.43,29.08,0.00,28.27,1.28,29.98,3.43,29.76,3.87,31.13,0.19,30.92,-1.29,31.75,-2.32,31.35,-2.31,30.94,-0.51,31.55,1.00,32.08,0.16,31.74,0.86,28.93,0.48,25.49
2015-08-25 22:00,-6.33,22.01,-9.51,24.43,-9.07,26.53,-5.81,27.87,-1.44,27.86,1.68,27.50,2.12,28.87,0.13,28.20,-0.75,29.82,0.04,31.81,-2.22,32.83,-0.55,31.33,1.59,31.11,2.55,31.38,2.87,31.37,4.69,30.43,5.96,31.83,4.96,31.33,3.76,27.46,2.81,24.59,2.03,21.46
2015-08-25 22:20,-7.66,27.45,-8.68,26.64,-4.50,28.03,-1.78,29.43,-0.29,30.78,0.83,29.75,0.44,28.91,-1.58,26.89,-1.40,26.62,-2.76,26.66,-1.13,27.12,-1.01,29.65,0.81,30.57,2.96,29.94,4.35,29.08,4.70,29.29,3.20,27.62,1.42,23.99,2.47,21.38,3.28,19.63,5.01,16.07
2015-08-25 22:40,-8.74,19.87,-8.85,20.98,-8.72,21.64,-5.72,23.53,-1.35,26.43,-0.03,26.18,0.12,26.02,-0.92,21.98,-1.42,19.34,-1.67,19.48,-2.10,21.02,-1.00,23.72,0.13,24.15,1.58,25.28,3.28,25.87,2.67,24.35,1.39,21.18,-0.31,18.00,-0.76,15.89,-0.56,13.35,-2.23,10.80
2015-08-25 23:00,-7.66,14.57,-12.38,14.37,-8.18,18.99,-2.94,21.41,-0.58,21.14,0.53,23.84,-0.41,22.75,0.26,21.48,-0.75,19.53,-2.94,15.90,-3.62,14.98,-3.90,15.63,-2.39,17.62,-1.20,20.76,0.44,20.49,-0.64,18.42,-0.20,17.61,-0.83,14.32,-1.52,10.90,-2.07,8.77,-1.14,4.77
2015-08-25 23:20,-7.43,11.93,-9.82,10.84,-2.92,15.08,-0.24,17.39,1.66,20.22,0.97,18.25,1.72,16.70,0.71,15.48,-1.02,13.53,-1.10,11.95,-1.98,9.21,-3.13,7.01,-3.36,6.74,-1.14,10.28,0.05,12.69,0.67,14.53,0.82,13.64,-0.45,10.78,-2.48,8.03,-2.76,5.35,-2.03,6.08
2015-08-25 23:40,-0.87,5.26,-4.84,4.24,-5.44,4.18,-0.90,9.41,2.04,10.04,4.19,12.72,3.54,12.85,2.04,12.63,2.34,10.85,-0.56,7.84,-2.87,6.46,-3.45,4.84,-4.75,2.81,-3.48,2.03,0.19,4.83,0.73,6.96,1.94,8.55,2.19,9.14,-0.08,6.52,-0.81,5.07,-1.38,4.50
2015-08-26 00:00,-0.96,1.18,-1.80,0.84,-1.88,1.13,-0.96,1.91,3.03,2.52,4.83,5.32,4.63,7.13,2.68,5.95,1.94,5.64,1.62,4.93,-0.45,1.95,-1.63,0.27,-2.24,-0.53,-2.37,-1.19,-0.95,-2.14,1.14,1.47,1.42,2.69,0.52,2.95,-0.45,0.50,-2.08,-1.84,-2.19,-2.91
2015-08-26 00:20,6.97,-2.60,7.58,-1.80,3.59,-1.68,0.38,-0.62,1.28,-0.47,2.86,1.64,1.05,2.90,-0.65,3.77,-0.81,4.34,0.70,4.15,-0.78,1.65,-2.31,-2.11,-3.81,-3.05,-2.07,-2.98,0.57,-1.29,1.74,0.08,1.96,1.90,1.36,-0.76,0.63,-4.81,1.35,-5.13,1.68,-9.61
2015-08-26 00:40,4.69,-6.67,0.46,-9.33,-0.41,-9.57,0.34,-4.89,4.07,-3.73,1.66,-4.41,0.90,-7.23,0.34,-5.62,0.60,-5.44,1.07,-5.62,1.63,-7.23,0.51,-10.25,1.48,-11.84,2.23,-12.67,2.78,-13.14,1.51,-10.48,1.62,-10.87,4.38,-12.17,4.71,-15.92,4.85,-19.72,5.29,-20.54
2015-08-26 01:00,0.44,-20.66,2.70,-19.81,4.72,-18.51,4.23,-16.05,5.36,-14.18,5.28,-7.65,4.44,-4.67,2.94,-4.88,2.76,-4.62,3.34,-5.19,2.48,-8.03,3.65,-11.44,4.07,-14.02,4.34,-17.17,3.94,-17.59,4.76,-19.02,3.38,-20.76,3.67,-21.41,3.01,-21.28,3.79,-21.48,4.92,-21.78
2015-08-26 01:20,-0.91,-26.55,2.05,-22.29,3.60,-21.53,3.23,-19.87,3.79,-21.48,3.32,-22.76,2.50,-23.51,2.96,-24.42,2.51,-22.46,3.08,-21.89,2.31,-19.92,1.92,-18.16,1.22,-16.80,1.50,-13.40,4.09,-10.79,3.58,-11.56,4.14,-13.90,2.86,-14.88,3.43,-16.90,4.43,-20.78,3.83,-21.99
2015-08-26 01:40,-1.49,-28.90,0.29,-27.46,5.78,-27.05,7.32,-29.52,7.94,-27.68,7.48,-26.05,7.48,-24.59,7.25,-23.41,6.72,-24.49,4.92,-27.29,3.50,-27.80,2.32,-28.03,2.63,-29.50,1.71,-28.09,4.33,-27.77,4.70,-27.98,6.18,-28.81,6.43,-30.08,5.09,-29.74,4.20,-26.97,2.88,-24.86
2015-08-26 02:00,6.73,-27.09,7.16,-32.27,6.50,-32.87,6.32,-32.61,7.28,-32.34,6.42,-31.86,6.76,-30.51,6.86,-31.21,5.35,-30.29,6.33,-32.30,6.82,-31.43,6.85,-29.34,8.93,-25.32,9.00,-21.88,7.44,-18.58,6.95,-16.84,6.49,-17.80,5.86,-18.50,2.69,-21.27,0.12,-22.10,-1.89,-21.22
2015-08-26 02:20,7.50,-38.62,7.33,-39.50,4.27,-39.32,2.22,-36.47,1.29,-32.48,2.01,-29.15,2.03,-28.11,2.42,-28.00,0.90,-28.53,1.84,-27.44,2.98,-25.97,4.03,-23.07,3.74,-19.83,2.98,-17.14,3.45,-14.40,2.33,-12.64,0.55,-14.08,-1.37,-13.90,-0.54,-13.87,-1.00,-14.10,-1.86,-13.62
2015-08-26 02:40,8.30,-45.87,7.45,-45.07,8.62,-41.83,8.56,-37.59,8.55,-35.72,8.46,-31.38,7.93,-27.27,8.63,-24.27,9.39,-22.91,8.52,-20.56,8.29,-17.19,7.39,-15.47,6.20,-13.11,6.15,-12.91,5.79,-13.12,6.13,-9.91,5.72,-8.46,5.26,-7.55,6.47,-5.96,7.27,-4.39,7.22,-2.74
2015-08-26 03:00,5.00,-54.39,4.83,-51.95,4.48,-49.24,4.78,-43.34,6.33,-45.50,7.32,-43.86,6.20,-39.92,3.44,-33.84,3.56,-32.04,2.42,-28.00,2.84,-24.35,1.65,-20.53,-0.26,-16.70,-0.22,-15.03,-0.09,-14.37,0.74,-11.43,1.15,-8.82,0.82,-6.21,0.93,-2.54,0.27,1.63,2.14,3.83
2015-08-26 03:20,4.54,-47.25,5.54,-46.03,6.87,-46.69,4.69,-38.99,5.54,-42.71,4.50,-40.51,5.12,-33.16,4.76,-30.77,5.38,-29.66,4.16,-27.19,2.67,-23.77,-0.08,-18.83,-0.09,-12.91,-1.51,-11.55,-1.46,-6.96,0.18,-4.31,1.24,-3.29,0.59,0.48,-0.05,3.83,-1.02,5.43,2.90,4.46
2015-08-26 03:40,-5.15,-48.64,-2.22,-45.42,-0.36,-44.27,1.10,-33.26,2.78,-31.85,3.07,-26.26,3.33,-17.66,2.11,-14.79,2.63,-14.43,3.78,-13.37,1.27,-13.67,1.34,-11.36,0.36,-13.41,-1.08,-15.27,-2.34,-10.85,-1.21,-5.64,-1.27,-0.67,-2.15,4.28,-2.23,7.89,-1.62,9.41,-0.36,19.64
2015-08-26 04:00,-3.34,-51.35,-2.64,-50.53,-1.20,-49.39,0.80,-36.25,1.83,-37.31,5.32,-31.65,4.28,-22.48,5.23,-22.53,5.79,-20.81,6.30,-17.86,4.56,-15.03,5.25,-10.47,6.52,-8.34,5.32,-11.07,3.46,-5.98,0.58,0.16,-2.24,4.25,-1.93,7.56,-1.94,10.16,-2.33,7.86,0.78,-1.65
2015-08-26 04:20,-4.74,-45.30,-3.56,-43.62,-2.80,-41.53,-0.32,-32.31,0.86,-33.53,0.83,-29.38,-0.65,-23.78,-0.36,-18.91,-0.31,-18.38,-0.09,-15.10,-0.82,-10.31,-0.22,-6.19,-2.52,-1.02,-3.04,0.08,-4.76,1.77,-5.11,4.48,-5.21,7.77,-4.83,9.34,-4.34,12.39,-2.50,9.58,-3.56,4.50
2015-08-26 04:40,-5.67,-46.08,-4.42,-43.86,-4.57,-40.78,-3.84,-36.01,0.16,-32.90,1.62,-28.12,1.89,-24.30,2.78,-18.65,3.33,-14.34,3.89,-9.71,4.24,-5.45,3.22,-2.21,-0.29,0.65,-1.67,2.23,0.86,2.84,1.13,6.66,3.23,10.27,2.64,11.97,2.15,13.70,3.36,10.51,0.92,12.52
2015-08-26 05:00,-6.69,-43.57,-6.27,-43.97,-5.19,-41.17,-4.50,-37.34,-2.90,-34.18,-0.21,-29.37,1.56,-23.88,1.38,-18.11,-0.78,-14.15,-1.70,-10.87,-1.94,-8.55,-0.96,-4.32,-0.77,-0.95,-0.02,2.28,0.23,3.60,-1.29,6.39,-0.67,7.50,-0.58,8.67,-1.76,9.17,-1.48,7.79,-3.00,4.35
2015-08-26 05:20,-0.94,-34.15,0.35,-36.48,-0.25,-34.37,1.59,-32.08,1.34,-30.80,2.67,-26.68,-0.13,-24.15,-1.47,-21.62,-2.23,-18.92,-1.15,-13.94,-0.89,-8.98,0.46,-3.82,-1.05,1.88,-1.89,3.00,-1.75,3.25,-0.73,6.24,-0.86,7.45,0.35,7.58,0.21,5.15,0.71,3.73,1.39,2.06
2015-08-26 05:40,-0.39,-25.05,-0.43,-27.14,-0.61,-27.61,-0.06,-24.02,-0.59,-21.06,1.00,-18.22,-0.58,-15.96,-2.72,-12.41,-1.40,-9.75,-0.59,-5.26,0.82,-1.43,-1.60,2.35,-4.20,6.40,-4.56,6.92,-5.23,7.46,-3.19,7.62,-1.63,8.69,-2.22,8.93,-2.17,7.29,-1.19,5.69,0.65,2.47
2015-08-26 06:00,-4.66,-19.51,-4.37,-20.57,-4.30,-15.66,-3.73,-10.31,-3.56,-7.97,-2.54,-10.49,-0.63,-10.99,-0.37,-10.08,0.03,-6.33,-0.02,-2.50,-1.49,1.97,-2.35,6.09,-2.38,9.51,-2.18,8.43,-1.48,8.52,-0.32,7.39,0.11,5.85,0.15,5.34,-1.32,4.30,-2.00,3.38,2.59,3.33
2015-08-26 06:20,-2.60,-6.97,-3.05,-11.26,-2.80,-9.21,-2.47,-4.13,-2.93,-1.04,-2.33,0.17,-0.23,1.18,1.99,-0.79,0.57,-2.75,0.51,-4.01,-1.33,-0.79,-3.63,5.83,-4.37,9.57,-4.94,9.00,-3.60,9.06,-2.47,8.34,0.18,5.25,1.81,4.25,2.59,4.79,1.82,3.11,10.05,-6.51
2015-08-26 06:40,-6.52,8.34,-4.81,4.15,-3.03,-1.79,-3.27,-1.65,-3.26,-1.34,-2.48,1.06,0.16,-1.31,1.88,-4.46,2.28,-6.21,-0.39,-0.84,0.32,7.68,-0.36,10.81,-1.21,11.61,-3.75,11.41,-4.84,9.75,-2.16,8.74,-0.19,4.73,3.41,5.22,5.06,6.00,5.13,6.13,,
2015-08-26 07:00,-5.33,16.26,-2.70,12.12,-0.97,8.56,-0.21,4.41,2.28,1.48,3.50,0.47,4.28,-1.91,5.18,-4.35,2.62,-1.55,0.34,3.21,0.89,8.25,-0.12,11.09,-2.55,11.96,-3.61,10.93,-4.80,7.79,-1.94,6.10,1.50,5.00,4.52,5.33,5.45,5.70,1.71,6.82,,
2015-08-26 07:20,-11.37,21.10,-5.64,19.92,0.75,15.70,3.46,9.81,3.72,5.94,5.23,3.56,3.91,3.08,2.31,7.62,-0.20,12.83,0.13,13.86,0.66,14.94,-0.03,14.44,-1.85,12.05,-1.74,9.07,0.54,6.18,3.06,7.93,5.39,9.22,7.00,9.78,5.85,10.18,1.71,6.82,,
2015-08-26 07:40,-5.10,20.59,1.44,16.93,4.47,13.22,4.69,12.45,6.03,12.10,6.78,13.14,5.30,15.43,5.12,19.01,4.71,21.91,4.46,23.92,1.79,19.73,-2.04,14.91,-1.97,9.52,1.07,8.72,2.32,10.53,3.37,11.97,4.80,12.79,5.74,11.29,3.22,9.54,0.90,7.84,,
2015-08-26 08:00,-11.44,20.98,-8.22,20.23,-4.18,19.91,-5.50,18.71,-5.13,19.23,-5.66,20.01,-2.35,19.70,-2.28,20.56,-2.28,21.28,-0.82,19.41,1.21,16.66,2.95,13.10,1.47,9.14,3.14,10.56,4.55,12.20,7.68,12.88,8.12,12.07,6.22,9.24,3.51,8.89,1.16,7.29,6.97,-2.60
2015-08-26 08:20,-17.31,26.28,-15.90,24.60,-12.66,22.71,-10.72,22.84,-9.04,26.44,-8.05,26.61,-5.40,22.38,-4.66,19.78,-2.81,18.02,-2.11,19.57,-0.95,20.62,-1.63,22.30,-0.72,24.22,-1.49,24.00,-2.80,23.11,-1.20,21.49,-0.50,19.40,0.89,15.95,1.19,13.43,-1.42,13.84,-0.62,6.58
2015-08-26 08:40,-19.10,30.03,-16.10,31.19,-11.76,33.46,-5.44,33.17,-3.94,31.93,-3.58,31.00,-2.22,29.51,0.30,25.75,2.08,24.60,2.82,22.00,3.28,21.09,4.02,18.49,2.13,18.17,-0.19,17.20,-0.71,16.11,-2.75,15.95,-3.70,15.27,-3.27,14.14,-1.47,14.76,0.77,16.74,3.85,17.61
2015-08-26 09:00,-17.68,36.78,-17.45,34.14,-15.05,34.09,-11.60,34.75,-6.50,35.47,-1.88,33.45,-1.70,29.14,-0.89,28.12,-0.57,25.51,-0.11,23.15,-2.18,21.31,-3.84,20.53,-5.56,18.90,-5.55,17.76,-4.78,17.98,-1.58,20.65,0.76,22.66,3.49,26.24,6.81,29.57,8.50,29.84,9.01,27.28
2015-08-26 09:20,-6.45,36.00,-10.90,34.12,-12.50,32.42,-13.99,31.07,-10.64,30.97,-4.03,34.09,0.28,29.49,-2.21,26.91,-2.62,25.03,-6.49,19.26,-7.55,18.23,-7.33,19.65,-4.41,22.55,-2.56,25.57,0.81,27.98,4.29,30.73,5.92,33.06,7.09,33.70,5.43,30.01,3.67,28.16,2.30,28.61
2015-08-26 09:40,-7.59,27.57,-10.18,27.88,-10.76,25.54,-10.79,25.63,-8.38,27.04,-2.83,27.99,1.95,27.26,0.89,24.78,-2.79,21.24,-3.22,23.51,-2.38,23.85,-0.57,26.24,0.22,27.50,3.95,30.11,5.25,32.14,5.64,30.38,5.74,26.36,2.73,21.56,0.64,18.68,-1.30,16.36,-5.67,21.88
2015-08-26 10:00,-9.38,31.33,-11.02,30.14,-10.11,28.01,-9.33,27.08,-7.13,27.39,-0.46,28.45,2.89,28.36,2.10,27.10,0.99,26.26,-0.53,25.73,-1.77,26.83,-0.27,28.50,1.66,29.78,3.68,31.08,5.41,32.29,5.11,31.17,4.12,27.67,4.03,22.13,2.95,18.60,1.43,15.16,1.54,11.45
2015-08-26 10:20,-9.91,31.70,-10.49,30.08,-11.27,28.09,-9.98,25.34,-8.34,27.99,-2.07,29.35,2.85,29.59,2.61,27.86,2.06,26.88,0.69,27.32,-1.07,26.20,-1.41,27.76,0.12,30.07,2.20,31.90,3.90,30.31,4.06,28.27,4.04,25.77,3.21,21.69,3.23,18.69,2.58,16.22,1.11,13.72
2015-08-26 10:40,-9.93,31.80,-11.57,30.61,-12.63,30.31,-10.15,27.06,-2.36,29.26,3.13,30.09,6.01,29.45,4.22,28.42,2.57,26.19,0.63,25.33,0.59,27.29,2.24,28.80,3.01,29.02,2.25,27.66,1.61,24.05,1.31,22.92,3.05,21.54,5.78,19.61,7.05,16.96,6.98,13.51,4.53,10.43
2015-08-26 11:00,-7.73,26.60,-6.20,27.03,-4.86,26.37,-6.24,24.63,-2.48,23.82,2.70,24.98,4.31,24.08,2.60,22.04,0.99,20.75,0.33,23.06,-0.03,25.45,1.54,25.79,2.19,24.94,0.97,23.76,-2.23,18.18,-1.58,15.14,-1.36,15.10,-0.14,17.01,2.96,17.46,3.41,16.24,4.10,14.15
2015-08-26 11:20,-11.53,21.27,-7.15,22.71,-3.51,24.16,-1.96,23.45,-0.22,25.40,2.29,26.42,3.53,25.73,4.58,23.12,5.22,22.68,5.31,23.12,5.55,21.52,3.37,18.21,3.01,17.27,0.83,13.95,-0.56,11.17,-1.63,12.74,-1.75,14.99,-2.03,15.64,-0.95,15.84,-0.71,12.79,0.77,9.78
2015-08-26 11:40,-8.80,18.61,-7.84,18.15,-4.01,18.20,-0.20,19.79,-0.58,21.14,1.96,19.16,3.08,18.85,1.57,14.27,2.41,14.61,1.93,13.74,-0.33,12.17,-0.02,11.84,-0.92,12.42,-0.41,13.19,1.35,13.58,2.00,13.14,0.72,12.88,-1.11,11.64,-0.42,11.42,-0.82,13.17,-0.60,10.95
2015-08-26 12:00,0.08,14.05,-1.39,14.47,-1.57,16.19,2.90,16.93,3.82,16.98,4.31,15.98,2.60,16.53,0.40,12.90,0.22,10.25,-0.47,11.20,-0.00,14.34,1.59,13.86,-1.29,9.71,-1.88,7.37,-1.05,7.39,-1.24,9.52,0.12,10.95,-0.21,9.92,1.45,8.10,0.76,5.41,0.13,4.30
2015-08-26 12:20,1.44,5.19,3.57,3.92,3.42,5.54,2.64,7.92,1.23,9.60,2.61,11.34,2.91,11.74,-0.13,8.17,-1.97,4.02,-2.77,0.98,-1.85,2.49,0.36,4.99,1.79,8.72,2.37,8.15,3.98,5.39,3.88,7.96,3.55,9.11,3.54,9.52,1.91,5.74,1.26,2.54,-0.50,-0.45
2015-08-26 12:40,3.18,2.35,2.41,3.59,2.86,1.64,1.71,2.04,1.12,1.56,2.78,1.93,4.21,2.75,4.76,3.74,3.87,2.86,2.04,1.62,0.42,-0.40,0.71,-1.05,3.89,1.31,3.91,5.26,4.11,6.78,5.89,8.21,5.99,6.37,5.17,1.57,3.80,-2.04,1.42,-4.28,1.15,-5.91
2015-08-26 13:00,6.28,-6.02,5.43,-8.54,2.91,-6.97,-0.97,-4.64,-1.66,-3.69,0.11,-1.11,-1.46,-2.91,-3.06,-3.88,-2.50,-6.22,-1.53,-7.08,-0.57,-6.81,-0.23,-5.05,1.08,-2.71,2.55,-0.94,3.16,-0.87,2.39,-4.42,1.44,-8.01,-0.86,-9.08,0.03,-11.11,1.73,-9.80,2.00,-12.94
2015-08-26 13:20,5.23,-11.51,3.26,-13.00,1.54,-12.04,-1.05,-8.40,0.26,-6.06,1.92,-3.10,1.91,-1.23,3.59,-5.32,4.62,-8.25,4.45,-7.26,4.47,-6.63,5.28,-9.11,5.64,-8.90,4.80,-7.79,5.24,-7.87,5.01,-8.14,6.09,-8.67,4.45,-10.59,4.18,-15.13,4.46,-18.69,4.89,-21.69
2015-08-26 13:40,0.73,-22.03,-0.56,-21.88,-2.55,-23.69,-2.03,-22.19,0.95,-17.30,2.69,-10.25,2.64,-7.88,2.66,-5.38,3.64,-4.06,4.79,-7.37,5.18,-9.13,4.21,-7.54,4.42,-6.44,3.43,-8.07,3.49,-11.59,2.06,-10.95,3.61,-10.20,4.25,-10.23,3.42,-10.26,2.93,-16.22,-0.48,-19.98
2015-08-26 14:00,3.92,-31.11,2.91,-33.78,1.06,-29.84,0.75,-25.77,1.75,-21.23,3.48,-15.96,3.69,-11.22,3.03,-7.04,4.06,-5.92,3.41,-8.39,2.21,-11.12,3.38,-15.26,5.35,-20.73,4.85,-22.64,4.81,-24.72,5.36,-24.46,4.37,-25.37,4.07,-23.58,4.72,-21.84,2.78,-20.83,2.27,-20.87
2015-08-26 14:20,0.30,-29.33,-0.39,-28.38,0.40,-27.12,3.95,-24.24,6.54,-21.64,7.08,-18.78,8.41,-15.39,7.42,-14.11,7.41,-12.97,6.64,-13.19,6.81,-15.64,6.89,-17.38,5.66,-17.42,4.33,-20.08,5.03,-20.71,4.74,-22.25,3.74,-22.01,1.66,-21.67,0.03,-20.67,1.02,-19.04,1.52,-16.40
2015-08-26 14:40,4.55,-35.92,5.51,-36.37,5.84,-35.34,6.94,-30.77,7.21,-28.41,6.69,-26.58,7.47,-24.18,8.95,-20.23,7.96,-19.68,6.87,-21.34,5.49,-22.35,4.74,-22.25,3.61,-23.40,3.01,-21.28,2.49,-20.18,3.27,-17.78,6.35,-15.46,6.28,-14.12,7.55,-12.00,8.86,-9.65,7.83,-6.72
2015-08-26 15:00,7.97,-42.12,7.01,-43.12,4.83,-40.20,4.53,-34.37,3.30,-30.04,3.76,-29.08,4.25,-28.62,4.56,-26.04,5.59,-21.59,5.00,-18.02,5.34,-14.08,3.28,-11.23,3.55,-8.87,1.79,-7.81,1.01,-9.07,-1.01,-9.64,-2.50,-9.54,-3.01,-9.58,-2.36,-7.84,-1.12,-7.07,0.40,-4.36
2015-08-26 15:20,3.99,-51.56,3.68,-48.64,4.64,-42.85,1.97,-40.39,2.21,-38.66,3.72,-33.35,4.99,-29.04,5.78,-26.32,5.57,-23.37,4.62,-19.27,4.89,-16.91,4.04,-12.06,3.12,-10.65,2.52,-13.32,2.29,-12.86,1.91,-10.79,2.47,-8.34,1.59,-8.18,0.19,-5.45,0.23,-2.64,-0.90,-0.88
2015-08-26 15:40,7.83,-48.60,6.30,-49.45,5.32,-52.95,4.25,-46.60,6.34,-44.45,7.02,-36.57,5.28,-28.96,2.77,-21.56,1.73,-17.49,1.71,-14.48,1.55,-11.72,1.52,-10.90,1.98,-9.94,2.82,-10.32,4.35,-8.75,4.00,-6.04,4.43,-4.26,3.87,-3.38,2.40,3.28,1.59,8.35,1.69,9.83
2015-08-26 16:00,6.25,-52.58,6.96,-48.85,7.90,-46.30,5.44,-37.95,7.28,-39.30,7.40,-33.86,6.12,-23.83,6.86,-20.92,4.39,-18.82,2.27,-16.09,1.35,-15.42,-0.39,-12.58,-3.01,-10.31,-0.83,-7.72,0.61,-4.71,2.35,0.87,-0.30,2.51,0.44,6.88,-0.86,8.18,0.32,11.73,6.39,10.85
2015-08-26 16:20,-0.26,-52.35,1.53,-48.00,3.42,-42.58,4.01,-31.81,6.76,-36.75,5.89,-33.67,5.79,-25.59,5.20,-27.94,4.40,-26.19,2.75,-24.06,1.83,-20.79,-0.77,-12.69,-0.78,-8.64,-0.72,-6.65,-1.25,-1.08,-0.93,3.27,-0.47,4.96,-0.71,6.55,-1.48,7.79,-2.82,7.41,4.59,4.73
2015-08-26 16:40,-4.51,-46.49,-2.13,-43.52,1.67,-40.79,3.34,-32.73,5.35,-33.61,5.80,-29.33,6.43,-24.58,6.40,-22.61,5.43,-21.02,3.00,-19.42,-0.07,-15.19,-1.52,-9.68,-1.40,-4.24,-1.23,-1.91,-0.42,0.40,0.40,4.48,1.32,7.44,-1.39,8.23,-0.35,8.94,2.06,7.03,0.42,1.47
2015-08-26 17:00,-4.90,-43.27,-3.88,-41.73,-2.77,-37.57,-0.50,-30.18,1.17,-27.63,3.21,-22.37,4.33,-16.76,3.81,-14.93,3.74,-12.87,1.70,-11.16,-0.05,-9.37,-1.34,-3.71,-0.62,0.34,-1.30,2.75,-0.30,7.29,-0.06,8.30,0.91,12.21,0.65,11.30,-0.28,10.52,1.10,7.48,0.76,6.14
2015-08-26 17:20,-6.02,-43.38,-4.34,-41.24,-3.74,-38.58,-1.00,-32.81,1.53,-31.47,2.38,-26.04,3.32,-17.98,4.78,-12.47,4.48,-9.96,2.52,-8.54,-1.12,-7.80,-1.27,-1.40,-0.71,2.50,0.96,4.32,0.38,8.21,-0.19,10.23,0.22,9.52,0.62,8.08,1.45,7.37,2.73,9.09,-0.02,3.74
2015-08-26 17:40,-5.12,-36.99,-4.16,-37.45,-4.44,-34.62,-1.73,-27.30,0.60,-24.88,0.94,-18.75,1.20,-15.98,0.77,-16.31,-0.90,-15.53,1.24,-13.57,1.74,-10.94,2.52,-7.08,2.68,0.45,0.48,5.64,-1.38,8.55,-1.59,8.18,-0.60,9.08,-0.42,6.64,-1.51,4.98,-0.87,2.35,-1.68,1.91
2015-08-26 18:00,-2.21,-27.44,-3.14,-29.68,-4.25,-28.33,-4.93,-22.60,-5.98,-18.53,-4.61,-14.92,-1.94,-14.06,0.87,-12.64,3.30,-10.19,2.14,-7.92,-0.51,-2.22,-2.29,1.12,-3.50,2.44,-2.70,5.89,-2.97,9.76,-1.29,10.44,0.07,7.09,-0.43,4.45,-1.68,3.37,-3.62,1.78,-1.79,2.30
2015-08-26 18:20,-3.96,-18.68,-2.13,-23.68,-2.08,-19.09,-3.29,-13.71,-2.83,-9.11,-1.45,-6.64,3.28,-7.91,4.99,-10.64,2.71,-9.21,-0.05,-5.32,-2.91,1.46,-5.41,5.54,-4.68,6.99,-3.24,7.40,-0.67,10.10,1.79,10.59,2.39,9.20,1.65,7.01,-0.06,4.24,-0.88,4.22,2.10,2.88
2015-08-26 18:40,-2.02,-1.30,-2.71,-6.59,-3.34,-11.34,-3.93,-11.82,-2.62,-8.02,-2.03,-2.76,-0.50,-2.64,0.95,-5.55,2.39,-7.33,-0.26,-4.96,-2.31,0.80,-3.20,6.16,-2.19,8.11,-1.53,9.44,-0.77,10.80,1.27,9.09,3.46,9.08,3.97,6.53,1.72,4.95,0.19,2.65,6.32,4.49
2015-08-26 19:00,-3.79,11.19,-2.07,7.31,-1.19,3.09,-1.56,-2.94,-0.66,-4.65,0.67,-2.72,3.42,-1.42,4.18,-3.39,0.56,-0.88,-2.21,4.15,-2.08,8.45,-2.15,9.06,-3.19,9.80,-1.21,10.15,0.26,9.74,3.25,7.99,4.57,7.74,3.39,5.64,1.80,3.94,-1.57,4.44,15.67,-8.35
2015-08-26 19:20,-2.55,14.14,-2.55,11.96,-1.33,7.63,0.16,2.75,4.91,0.66,7.17,0.37,6.00,0.45,5.28,2.64,1.64,8.88,0.04,11.24,-0.54,13.67,-1.45,13.93,-1.41,13.42,0.48,10.42,2.62,9.47,5.67,8.98,5.37,9.31,2.22,7.59,-0.62,5.13,-2.19,4.06,,
2015-08-26 19:40,-8.51,22.74,-5.86,19.23,-1.20,18.57,1.44,14.75,4.47,12.49,6.49,11.60,5.84,11.32,5.10,13.92,3.04,18.63,2.73,20.83,1.41,20.35,0.92,15.85,0.55,10.55,0.74,11.33,2.39,12.11,7.70,13.19,7.79,13.22,4.52,10.11,1.57,8.03,-4.06,7.37,,
2015-08-26 20:00,-9.31,21.16,-7.11,23.66,-5.94,24.30,-5.00,25.40,-4.81,24.72,-4.21,23.33,-3.21,22.37,-2.26,23.05,-1.51,23.68,1.10,24.01,3.50,21.05,4.01,14.12,2.83,12.03,3.94,11.40,6.61,12.26,8.93,12.50,7.87,12.21,3.19,10.77,0.62,8.08,-4.71,9.68,0.28,3.41
2015-08-26 20:20,-11.92,28.53,-10.62,27.24,-11.91,28.12,-10.80,30.10,-7.63,28.81,-6.79,26.56,-6.41,23.02,-4.96,21.56,-3.17,21.86,-1.15,23.16,-1.20,23.35,0.34,25.25,2.62,26.00,3.72,25.79,3.27,22.96,3.76,21.23,1.50,18.92,0.80,18.10,-1.10,16.01,-1.42,13.11,-1.49,12.26